Simultaneous Nadir Overpasses (SNOs) Predictions

Prediction of SNOs between AQUA and NOAA-19 Satellite Orbit:

Table of predicted SNOs for the next 14.0 days since TLE Epoch: 4/27/2024
Index Date (AQUA) Time (AQUA) Lat,Lon (AQUA) SZA (AQUA ) Date (NOAA-19) Time (NOAA-19) Lat,Lon (NOAA-19) SZA (NOAA-19 ) Distance(km) Time Diff (sec)
1 04/28/2024 02:48:30 75.75, 134.63 61.41 04/28/2024 02:47:43 75.77, 134.56 61.44 3.08 47
2 04/28/2024 03:37:53 -75.82, -57.92 118.53 04/28/2024 03:38:44 -75.83, -57.99 118.52 2.30 51
3 04/30/2024 06:38:55 -75.76,-102.97 119.25 04/30/2024 06:37:49 -75.76,-102.96 119.25 0.64 66
4 04/30/2024 07:28:19 75.81, 64.55 60.79 04/30/2024 07:28:43 75.81, 64.50 60.80 1.29 24
5 05/02/2024 11:18:42 -75.82,-173.03 119.86 05/02/2024 11:18:49 -75.81,-173.00 119.87 1.36 7
6 05/04/2024 15:09:04 75.80, -50.53 59.50 05/04/2024 15:08:46 75.80, -50.45 59.50 1.99 18
7 05/04/2024 15:58:33 -76.16, 116.01 120.14 05/04/2024 15:59:41 -76.19, 118.19 120.13 58.29 68
8 05/06/2024 18:59:23 -75.79, 71.96 121.12 05/06/2024 18:58:53 -75.76, 71.93 121.15 3.62 30
9 05/06/2024 19:48:47 75.84,-120.56 58.93 05/06/2024 19:49:45 75.84,-120.51 58.93 1.41 58
10 05/08/2024 22:49:41 75.76,-165.50 58.27 05/08/2024 22:48:48 75.77,-165.45 58.28 1.74 53
11 05/08/2024 23:39:04 -75.83, 1.95 121.67 05/08/2024 23:39:51 -75.84, 2.03 121.66 2.65 47
12 05/11/2024 02:39:56 -75.74, -42.96 122.32 05/11/2024 02:38:55 -75.73, -43.07 122.32 3.05 61



Historial Predications of SNOs between AQUA and NOAA-19
